Location: Forst
(46.9333°N, 15.4333°E)
Time: 06:28:53
(UTC+00:00)

Cosmos 1939 Rocket - Pass Details

Date: 01 December 2020
Orbit: 532 x 584 km, 97.4° (Epoch: 18 January)

Event Time Altitude Azimuth Distance (km) Brightness Sun altitude
Rises 17:31:06 0° 185° (S) 2,673 6.5 -23.1°
Reaches altitude 10° 17:33:18 10° 194° (SSW) 1,792 5.7 -23.5°
Maximum altitude 17:36:54 37° 263° (W) 853 4.3 -24.1°
Drops below altitude 10° 17:40:36 10° 332° (NNW) 1,830 5.7 -24.7°
Sets 17:42:52 0° 341° (NNW) 2,738 6.5 -25.1°
